,,,PA_Meas_PMT16A,,PR_Meas_QMR101_102,,RH_Meas_QMH101,,SR_Meas_QMS101,,TA_Meas_QMH101,,GenWind,,GenWind,
date,time,status,PA,status,PR,status,RH,status,SR,status,TA,status,DirAvg,status,SpdAvg,
2012-12-11, 00:00:04,VALID,1010.68,VALID,0,VALID,104,VALID,0.112112,VALID,23.2246,VALID,95,VALID,0.799219,
2012-12-11, 00:01:04,VALID,1010.69,VALID,0,VALID,104,VALID,0.112112,VALID,23.2441,VALID,95,VALID,0.652734,
2012-12-11, 00:02:04,VALID,1010.65,VALID,0,VALID,104,VALID,0.112112,VALID,23.2246,VALID,95,VALID,0.440625,
2012-12-11, 00:03:04,VALID,1010.67,VALID,0,VALID,104,VALID,0.112112,VALID,23.2441,VALID,75,VALID,0.650781,
2012-12-11, 00:04:04,VALID,1010.62,VALID,0,VALID,104,VALID,0.112112,VALID,23.2246,VALID,75,VALID,0.699219,
2012-12-11, 00:05:04,VALID,1010.62,VALID,0,VALID,104,VALID,0.112112,VALID,23.2441,VALID,75,VALID,0.587109,
2012-12-11, 00:06:04,VALID,1010.6,VALID,0,VALID,104,VALID,0.112112,VALID,23.2246,VALID,116,VALID,0.571875,
2012-12-11, 00:07:04,VALID,1010.6,VALID,0,VALID,104,VALID,0,VALID,23.2246,VALID,88,VALID,0.920313,
2012-12-11, 00:08:04,VALID,1010.58,VALID,0,VALID,104,VALID,0.112112,VALID,23.2459,VALID,88,VALID,0.624219,
2012-12-11, 00:09:04,VALID,1010.56,VALID,0,VALID,104,VALID,0,VALID,23.2654,VALID,88,VALID,0.207031,
2012-12-11, 00:10:04,VALID,1010.56,VALID,0,VALID,104,VALID,0.112112,VALID,23.2441,VALID,88,VALID,0.206641,
2012-12-11, 00:11:04,VALID,1010.54,VALID,0,VALID,104,VALID,0.112112,VALID,23.2441,VALID,109,VALID,0.542188,
2012-12-11, 00:12:04,VALID,1010.49,VALID,0,VALID,104,VALID,0.112112,VALID,23.2654,VALID,109,VALID,0.607031,
2012-12-11, 00:13:04,VALID,1010.48,VALID,0,VALID,104,VALID,0,VALID,23.2459,VALID,109,VALID,0.583203,
2012-12-11, 00:14:04,VALID,1010.47,VALID,0,VALID,104,VALID,0.112112,VALID,23.2459,VALID,97,VALID,0.570313,
2012-12-11, 00:15:04,VALID,1010.47,VALID,0,VALID,104,VALID,0.112112,VALID,23.2459,VALID,102,VALID,0.567187,
2012-12-11, 00:16:04,VALID,1010.45,VALID,0,VALID,104,VALID,0.112112,VALID,23.2246,VALID,102,VALID,0,
2012-12-11, 00:17:04,VALID,1010.42,VALID,0,VALID,104,VALID,0.112112,VALID,23.2441,VALID,102,VALID,0.333594,
2012-12-11, 00:18:04,VALID,1010.44,VALID,0,VALID,104,VALID,0.112112,VALID,23.2441,VALID,107,VALID,0.548047,
2012-12-11, 00:19:04,VALID,1010.4,VALID,0,VALID,104,VALID,0.112112,VALID,23.2246,VALID,123,VALID,0.616016,
2012-12-11, 00:20:04,VALID,1010.38,VALID,0,VALID,104,VALID,0.112112,VALID,23.2264,VALID,122,VALID,0.541797,
2012-12-11, 00:21:04,VALID,1010.4,VALID,0,VALID,104,VALID,0.112112,VALID,23.2654,VALID,122,VALID,0.303906,
2012-12-11, 00:22:04,VALID,1010.37,VALID,0,VALID,104,VALID,0,VALID,23.2459,VALID,123,VALID,0.721094,
2012-12-11, 00:23:04,VALID,1010.35,VALID,0,VALID,104,VALID,0,VALID,23.2264,VALID,122,VALID,0.975,
2012-12-11, 00:24:04,VALID,1010.32,VALID,0,VALID,104,VALID,0.112112,VALID,23.2069,VALID,122,VALID,0.684375,
2012-12-11, 00:25:04,VALID,1010.32,VALID,0,VALID,104,VALID,0,VALID,23.2246,VALID,122,VALID,0.572266,
2012-12-11, 00:26:04,VALID,1010.3,VALID,0,VALID,104,VALID,0.112112,VALID,23.2051,VALID,121,VALID,0.603516,
2012-12-11, 00:27:04,VALID,1010.27,VALID,0,VALID,104,VALID,0.112112,VALID,23.2069,VALID,121,VALID,0.351172,
2012-12-11, 00:28:04,VALID,1010.28,VALID,0,VALID,104,VALID,0.112112,VALID,23.2069,VALID,125,VALID,0.915234,
2012-12-11, 00:29:04,VALID,1010.23,VALID,0,VALID,104,VALID,0.112112,VALID,23.1662,VALID,139,VALID,0.990234,
2012-12-11, 00:30:04,VALID,1010.27,VALID,0,VALID,104,VALID,0,VALID,23.1467,VALID,110,VALID,0.905078,
2012-12-11, 00:31:04,VALID,1010.23,VALID,0,VALID,104,VALID,0.112112,VALID,23.1662,VALID,116,VALID,0.402344,
2012-12-11, 00:32:04,VALID,1010.23,VALID,0,VALID,104,VALID,0,VALID,23.1679,VALID,116,VALID,0.476172,
2012-12-11, 00:33:04,VALID,1010.21,VALID,0,VALID,104,VALID,0,VALID,23.1467,VALID,144,VALID,0.625391,
2012-12-11, 00:34:04,VALID,1010.23,VALID,0,VALID,104,VALID,0.112112,VALID,23.1467,VALID,118,VALID,0.870703,
2012-12-11, 00:35:04,VALID,1010.22,VALID,0,VALID,104,VALID,0.112112,VALID,23.1679,VALID,131,VALID,0.775781,
2012-12-11, 00:36:04,VALID,1010.2,VALID,0,VALID,104,VALID,0.112112,VALID,23.1467,VALID,133,VALID,0.661328,
2012-12-11, 00:37:04,VALID,1010.18,VALID,0,VALID,104,VALID,0,VALID,23.1857,VALID,133,VALID,0.5875,
2012-12-11, 00:38:04,VALID,1010.18,VALID,0,VALID,104,VALID,0,VALID,23.1679,VALID,121,VALID,0.685938,
2012-12-11, 00:39:04,VALID,1010.15,VALID,0,VALID,104,VALID,0,VALID,23.1679,VALID,127,VALID,0.539844,
2012-12-11, 00:40:04,VALID,1010.13,VALID,0,VALID,104,VALID,0,VALID,23.1485,VALID,127,VALID,0.634766,
2012-12-11, 00:41:04,VALID,1010.11,VALID,0,VALID,104,VALID,0,VALID,23.1467,VALID,127,VALID,0.431641,
2012-12-11, 00:42:04,VALID,1010.05,VALID,0,VALID,104,VALID,0,VALID,23.1874,VALID,127,VALID,0.392578,
2012-12-11, 00:43:04,VALID,1010.03,VALID,0,VALID,104,VALID,0,VALID,23.1485,VALID,127,VALID,0.383594,
2012-12-11, 00:44:04,VALID,1010.03,VALID,0,VALID,104,VALID,0,VALID,23.1679,VALID,127,VALID,0.341797,
2012-12-11, 00:45:04,VALID,1009.98,VALID,0,VALID,104,VALID,0,VALID,23.1679,VALID,149,VALID,0.840234,
2012-12-11, 00:46:04,VALID,1009.97,VALID,0,VALID,104,VALID,0,VALID,23.1485,VALID,158,VALID,0.270312,
2012-12-11, 00:47:04,VALID,1009.97,VALID,0,VALID,104,VALID,0,VALID,23.129,VALID,158,VALID,0.241406,
2012-12-11, 00:48:04,VALID,1009.95,VALID,0,VALID,104,VALID,0,VALID,23.1467,VALID,135,VALID,0.636719,
2012-12-11, 00:49:04,VALID,1009.93,VALID,0,VALID,104,VALID,0,VALID,23.1485,VALID,135,VALID,0.611719,
2012-12-11, 00:50:04,VALID,1009.93,VALID,0,VALID,104,VALID,0,VALID,23.1679,VALID,135,VALID,0.283594,
2012-12-11, 00:51:04,VALID,1009.87,VALID,0,VALID,104,VALID,0,VALID,23.1679,VALID,132,VALID,0.517578,
2012-12-11, 00:52:04,VALID,1009.88,VALID,0,VALID,104,VALID,0,VALID,23.1679,VALID,132,VALID,0.424219,
2012-12-11, 00:53:04,VALID,1009.83,VALID,0,VALID,104,VALID,0,VALID,23.1874,VALID,132,VALID,0.459766,
2012-12-11, 00:54:04,VALID,1009.82,VALID,0,VALID,104,VALID,0,VALID,23.2069,VALID,132,VALID,0.389844,
2012-12-11, 00:55:04,VALID,1009.84,VALID,0,VALID,104,VALID,0,VALID,23.1874,VALID,132,VALID,0.547266,
2012-12-11, 00:56:04,VALID,1009.8,VALID,0,VALID,104,VALID,0,VALID,23.1874,VALID,132,VALID,0.40625,
2012-12-11, 00:57:04,VALID,1009.74,VALID,0,VALID,104,VALID,0,VALID,23.1874,VALID,131,VALID,0.935938,
2012-12-11, 00:58:04,VALID,1009.76,VALID,0,VALID,104,VALID,0,VALID,23.1679,VALID,131,VALID,0.583203,
2012-12-11, 00:59:04,VALID,1009.73,VALID,0,VALID,104,VALID,0,VALID,23.1874,VALID,131,VALID,0.427734,
2012-12-11, 01:00:04,VALID,1009.71,VALID,0,VALID,104,VALID,0,VALID,23.1662,VALID,137,VALID,0.698828,
2012-12-11, 01:01:04,VALID,1009.7,VALID,0,VALID,104,VALID,0.112112,VALID,23.1662,VALID,139,VALID,0.291406,
2012-12-11, 01:02:04,VALID,1009.67,VALID,0,VALID,104,VALID,0,VALID,23.1874,VALID,139,VALID,0.0238281,
2012-12-11, 01:03:04,VALID,1009.68,VALID,0,VALID,104,VALID,0,VALID,23.1679,VALID,128,VALID,0.883594,
2012-12-11, 01:04:04,VALID,1009.66,VALID,0,VALID,104,VALID,0,VALID,23.2069,VALID,129,VALID,0.654297,
2012-12-11, 01:05:04,VALID,1009.63,VALID,0,VALID,104,VALID,0,VALID,23.1679,VALID,129,VALID,0.582422,
2012-12-11, 01:06:04,VALID,1009.63,VALID,0,VALID,104,VALID,0,VALID,23.1874,VALID,129,VALID,0.352344,
2012-12-11, 01:07:04,VALID,1009.62,VALID,0,VALID,104,VALID,0,VALID,23.1874,VALID,128,VALID,0.454688,
2012-12-11, 01:08:04,VALID,1009.62,VALID,0,VALID,104,VALID,0,VALID,23.1679,VALID,128,VALID,0.314453,
2012-12-11, 01:09:04,VALID,1009.61,VALID,0,VALID,104,VALID,0,VALID,23.1874,VALID,129,VALID,0.463672,
2012-12-11, 01:10:04,VALID,1009.57,VALID,0,VALID,104,VALID,0,VALID,23.1679,VALID,153,VALID,0.374609,
2012-12-11, 01:11:04,VALID,1009.55,VALID,0,VALID,104,VALID,0.112112,VALID,23.1485,VALID,153,VALID,0.560547,
2012-12-11, 01:12:04,VALID,1009.53,VALID,0,VALID,104,VALID,0.112112,VALID,23.1679,VALID,153,VALID,0.547656,
2012-12-11, 01:13:04,VALID,1009.52,VALID,0,VALID,104,VALID,0,VALID,23.129,VALID,146,VALID,0.884375,
2012-12-11, 01:14:04,VALID,1009.51,VALID,0,VALID,104,VALID,0.112112,VALID,23.1485,VALID,145,VALID,0.43125,
2012-12-11, 01:15:04,VALID,1009.5,VALID,0,VALID,104,VALID,0,VALID,23.1485,VALID,145,VALID,0.646484,
2012-12-11, 01:16:04,VALID,1009.48,VALID,0,VALID,104,VALID,0,VALID,23.1077,VALID,145,VALID,0.352344,
2012-12-11, 01:17:04,VALID,1009.48,VALID,0,VALID,104,VALID,0,VALID,23.1272,VALID,145,VALID,0.470313,
2012-12-11, 01:18:04,VALID,1009.46,VALID,0,VALID,104,VALID,0,VALID,23.129,VALID,145,VALID,0.544922,
2012-12-11, 01:19:04,VALID,1009.42,VALID,0,VALID,104,VALID,0,VALID,23.1095,VALID,141,VALID,0.984375,
2012-12-11, 01:20:04,VALID,1009.42,VALID,0,VALID,104,VALID,0,VALID,23.1485,VALID,158,VALID,0.769141,
2012-12-11, 01:21:04,VALID,1009.4,VALID,0,VALID,104,VALID,0,VALID,23.1485,VALID,132,VALID,0.566797,
2012-12-11, 01:22:04,VALID,1009.42,VALID,0,VALID,104,VALID,0,VALID,23.129,VALID,132,VALID,0.391406,
2012-12-11, 01:23:04,VALID,1009.39,VALID,0,VALID,104,VALID,0,VALID,23.129,VALID,110,VALID,0.939453,
2012-12-11, 01:24:04,VALID,1009.4,VALID,0,VALID,104,VALID,0,VALID,23.129,VALID,105,VALID,1.17969,
2012-12-11, 01:25:04,VALID,1009.38,VALID,0,VALID,104,VALID,0,VALID,23.1485,VALID,133,VALID,0.4125,
2012-12-11, 01:26:04,VALID,1009.38,VALID,0,VALID,104,VALID,0,VALID,23.129,VALID,103,VALID,0.66875,
2012-12-11, 01:27:04,VALID,1009.37,VALID,0,VALID,104,VALID,0,VALID,23.1485,VALID,102,VALID,0.588672,
2012-12-11, 01:28:04,VALID,1009.37,VALID,0,VALID,104,VALID,0,VALID,23.1095,VALID,102,VALID,0.610547,
2012-12-11, 01:29:04,VALID,1009.38,VALID,0,VALID,104,VALID,0,VALID,23.1679,VALID,108,VALID,0.678125,
2012-12-11, 01:30:04,VALID,1009.37,VALID,0,VALID,104,VALID,0,VALID,23.129,VALID,114,VALID,0.668359,
2012-12-11, 01:31:04,VALID,1009.35,VALID,0,VALID,104,VALID,0,VALID,23.1485,VALID,114,VALID,0.45625,
2012-12-11, 01:32:04,VALID,1009.36,VALID,0,VALID,104,VALID,0,VALID,23.129,VALID,112,VALID,0.505469,
2012-12-11, 01:33:04,VALID,1009.34,VALID,0,VALID,104,VALID,0,VALID,23.1095,VALID,112,VALID,0.500391,
2012-12-11, 01:34:04,VALID,1009.32,VALID,0,VALID,104,VALID,0.112112,VALID,23.1077,VALID,112,VALID,0.441797,
2012-12-11, 01:35:04,VALID,1009.28,VALID,0,VALID,104,VALID,0,VALID,23.1485,VALID,104,VALID,0.471094,
2012-12-11, 01:36:04,VALID,1009.29,VALID,0,VALID,104,VALID,0,VALID,23.1485,VALID,105,VALID,0.478516,
2012-12-11, 01:37:04,VALID,1009.26,VALID,0,VALID,104,VALID,0.112112,VALID,23.1485,VALID,110,VALID,0.914453,
2012-12-11, 01:38:04,VALID,1009.23,VALID,0,VALID,104,VALID,0.112112,VALID,23.129,VALID,115,VALID,0.796094,
2012-12-11, 01:39:04,VALID,1009.23,VALID,0,VALID,104,VALID,0,VALID,23.1077,VALID,99,VALID,0.691797,
2012-12-11, 01:40:04,VALID,1009.24,VALID,0,VALID,104,VALID,0.112112,VALID,23.1272,VALID,106,VALID,0.383594,
2012-12-11, 01:41:04,VALID,1009.22,VALID,0,VALID,104,VALID,0.112112,VALID,23.129,VALID,130,VALID,1.18867,
2012-12-11, 01:42:04,VALID,1009.22,VALID,0,VALID,104,VALID,0,VALID,23.129,VALID,128,VALID,0.674219,
2012-12-11, 01:43:04,VALID,1009.21,VALID,0,VALID,104,VALID,0,VALID,23.1095,VALID,111,VALID,0.545313,
2012-12-11, 01:44:04,VALID,1009.23,VALID,0,VALID,104,VALID,0.112112,VALID,23.1077,VALID,134,VALID,0.923828,
2012-12-11, 01:45:04,VALID,1009.2,VALID,0,VALID,104,VALID,0,VALID,23.0688,VALID,110,VALID,1.17852,
2012-12-11, 01:46:04,VALID,1009.21,VALID,0,VALID,104,VALID,0,VALID,23.09,VALID,121,VALID,0.994922,
2012-12-11, 01:47:04,VALID,1009.21,VALID,0,VALID,104,VALID,0.112112,VALID,23.0493,VALID,128,VALID,1.01719,
2012-12-11, 01:48:04,VALID,1009.18,VALID,0,VALID,104,VALID,0,VALID,23.09,VALID,92,VALID,0.68125,
2012-12-11, 01:49:04,VALID,1009.21,VALID,0,VALID,104,VALID,0,VALID,23.1095,VALID,111,VALID,0.519531,
2012-12-11, 01:50:04,VALID,1009.18,VALID,0,VALID,104,VALID,0.112112,VALID,23.1077,VALID,108,VALID,0.525391,
2012-12-11, 01:51:04,VALID,1009.18,VALID,0,VALID,104,VALID,0,VALID,23.0705,VALID,132,VALID,0.972656,
2012-12-11, 01:52:04,VALID,1009.18,VALID,0,VALID,104,VALID,0.112112,VALID,23.0883,VALID,113,VALID,0.906641,
2012-12-11, 01:53:04,VALID,1009.17,VALID,0,VALID,104,VALID,0,VALID,23.0705,VALID,130,VALID,1.03242,
2012-12-11, 01:54:04,VALID,1009.17,VALID,0,VALID,104,VALID,0,VALID,23.0705,VALID,140,VALID,1.14531,
2012-12-11, 01:55:04,VALID,1009.15,VALID,0,VALID,104,VALID,0,VALID,23.0688,VALID,137,VALID,0.947266,
2012-12-11, 01:56:04,VALID,1009.16,VALID,0,VALID,104,VALID,0.112112,VALID,23.0705,VALID,118,VALID,0.973437,
2012-12-11, 01:57:04,VALID,1009.15,VALID,0,VALID,104,VALID,0,VALID,23.0705,VALID,116,VALID,1.17852,
2012-12-11, 01:58:04,VALID,1009.16,VALID,0,VALID,104,VALID,0,VALID,23.0705,VALID,103,VALID,0.702734,
2012-12-11, 01:59:04,VALID,1009.15,VALID,0,VALID,104,VALID,0,VALID,23.0298,VALID,115,VALID,0.923047,
2012-12-11, 02:00:04,VALID,1009.12,VALID,0,VALID,104,VALID,0.112112,VALID,23.0316,VALID,105,VALID,0.876953,
2012-12-11, 02:01:04,VALID,1009.11,VALID,0,VALID,104,VALID,0,VALID,23.0723,VALID,122,VALID,1.34063,
2012-12-11, 02:02:04,VALID,1009.09,VALID,0,VALID,104,VALID,0,VALID,23.0298,VALID,120,VALID,1.21367,
2012-12-11, 02:03:04,VALID,1009.1,VALID,0,VALID,104,VALID,0,VALID,23.0705,VALID,100,VALID,0.726172,
2012-12-11, 02:04:04,VALID,1009.1,VALID,0,VALID,104,VALID,0,VALID,23.0493,VALID,124,VALID,0.555078,
2012-12-11, 02:05:04,VALID,1009.05,VALID,0,VALID,104,VALID,0,VALID,23.0511,VALID,105,VALID,0.751562,
2012-12-11, 02:06:04,VALID,1009.06,VALID,0,VALID,104,VALID,0,VALID,23.0493,VALID,108,VALID,0.774219,
2012-12-11, 02:07:04,VALID,1009.06,VALID,0,VALID,104,VALID,0,VALID,23.09,VALID,117,VALID,0.915234,
2012-12-11, 02:08:04,VALID,1009.04,VALID,0,VALID,104,VALID,0,VALID,23.0316,VALID,119,VALID,0.882031,
2012-12-11, 02:09:04,VALID,1009.02,VALID,0,VALID,104,VALID,0,VALID,23.0511,VALID,123,VALID,0.822656,
2012-12-11, 02:10:04,VALID,1009.03,VALID,0,VALID,104,VALID,0.112112,VALID,23.0511,VALID,123,VALID,1.10898,
2012-12-11, 02:11:04,VALID,1009.01,VALID,0,VALID,104,VALID,0.112112,VALID,23.0316,VALID,119,VALID,0.801562,
2012-12-11, 02:12:04,VALID,1008.99,VALID,0,VALID,104,VALID,0.112112,VALID,22.9909,VALID,116,VALID,1.02109,
2012-12-11, 02:13:04,VALID,1008.98,VALID,0,VALID,104,VALID,0,VALID,23.0121,VALID,116,VALID,0.933594,
2012-12-11, 02:14:04,VALID,1008.99,VALID,0,VALID,104,VALID,0,VALID,22.9909,VALID,117,VALID,0.948828,
2012-12-11, 02:15:04,VALID,1008.96,VALID,0,VALID,104,VALID,0,VALID,23.0316,VALID,101,VALID,0.908984,
2012-12-11, 02:16:04,VALID,1008.95,VALID,0,VALID,104,VALID,0,VALID,23.0121,VALID,124,VALID,0.848828,
2012-12-11, 02:17:04,VALID,1008.96,VALID,0,VALID,104,VALID,0,VALID,23.0316,VALID,126,VALID,0.841406,
2012-12-11, 02:18:04,VALID,1008.94,VALID,0,VALID,104,VALID,0.112112,VALID,22.9909,VALID,126,VALID,0.960156,
2012-12-11, 02:19:04,VALID,1008.92,VALID,0,VALID,104,VALID,0,VALID,23.0121,VALID,103,VALID,0.710938,
2012-12-11, 02:20:04,VALID,1008.93,VALID,0,VALID,104,VALID,0.112112,VALID,22.9926,VALID,102,VALID,0.883984,
2012-12-11, 02:21:04,VALID,1008.92,VALID,0,VALID,104,VALID,0,VALID,22.9714,VALID,95,VALID,1.44687,
2012-12-11, 02:22:04,VALID,1008.91,VALID,0,VALID,104,VALID,0.112112,VALID,22.9909,VALID,74,VALID,0.508203,
2012-12-11, 02:23:04,VALID,1008.91,VALID,0,VALID,104,VALID,0,VALID,22.9731,VALID,90,VALID,0.732422,
2012-12-11, 02:24:04,VALID,1008.92,VALID,0,VALID,104,VALID,0,VALID,23.0121,VALID,110,VALID,0.892969,
2012-12-11, 02:25:04,VALID,1008.9,VALID,0,VALID,104,VALID,0,VALID,22.9909,VALID,99,VALID,1.15547,
2012-12-11, 02:26:04,VALID,1008.86,VALID,0,VALID,104,VALID,0,VALID,22.9909,VALID,64,VALID,1.32969,
2012-12-11, 02:27:04,VALID,1008.85,VALID,0,VALID,104,VALID,0,VALID,23.0121,VALID,82,VALID,1.24258,
2012-12-11, 02:28:04,VALID,1008.83,VALID,0,VALID,104,VALID,0,VALID,23.0316,VALID,92,VALID,0.917969,
2012-12-11, 02:29:04,VALID,1008.84,VALID,0,VALID,104,VALID,0,VALID,23.0121,VALID,72,VALID,0.839844,
2012-12-11, 02:30:04,VALID,1008.82,VALID,0,VALID,104,VALID,0.112112,VALID,22.9909,VALID,85,VALID,0.808984,
2012-12-11, 02:31:04,VALID,1008.81,VALID,0,VALID,104,VALID,0.112112,VALID,23.0316,VALID,77,VALID,1.20859,
2012-12-11, 02:32:04,VALID,1008.79,VALID,0,VALID,104,VALID,0.112112,VALID,22.9714,VALID,101,VALID,1.09141,
2012-12-11, 02:33:04,VALID,1008.78,VALID,0,VALID,104,VALID,0,VALID,22.9909,VALID,74,VALID,0.991797,
2012-12-11, 02:34:04,VALID,1008.78,VALID,0,VALID,104,VALID,0.112112,VALID,23.0121,VALID,110,VALID,0.779297,
2012-12-11, 02:35:04,VALID,1008.77,VALID,0,VALID,104,VALID,0,VALID,23.0121,VALID,102,VALID,1.09648,
2012-12-11, 02:36:04,VALID,1008.78,VALID,0,VALID,104,VALID,0.112112,VALID,22.9714,VALID,101,VALID,1.38867,
2012-12-11, 02:37:04,VALID,1008.72,VALID,0,VALID,104,VALID,0.112112,VALID,22.9714,VALID,94,VALID,0.967969,
2012-12-11, 02:38:04,VALID,1008.73,VALID,0,VALID,104,VALID,0,VALID,22.9714,VALID,128,VALID,0.696875,
2012-12-11, 02:39:04,VALID,1008.73,VALID,0,VALID,104,VALID,0,VALID,23.0121,VALID,108,VALID,0.414453,
2012-12-11, 02:40:04,VALID,1008.72,VALID,0,VALID,104,VALID,0,VALID,22.9926,VALID,106,VALID,0.562109,
2012-12-11, 02:41:04,VALID,1008.74,VALID,0,VALID,104,VALID,0,VALID,22.9731,VALID,79,VALID,1.19453,
2012-12-11, 02:42:04,VALID,1008.74,VALID,0,VALID,104,VALID,0,VALID,22.9731,VALID,86,VALID,1.04609,
2012-12-11, 02:43:04,VALID,1008.74,VALID,0,VALID,104,VALID,0,VALID,22.9536,VALID,94,VALID,0.400391,
2012-12-11, 02:44:04,VALID,1008.73,VALID,0,VALID,104,VALID,0,VALID,22.9731,VALID,101,VALID,0.745703,
2012-12-11, 02:45:04,VALID,1008.72,VALID,0,VALID,104,VALID,0,VALID,22.9147,VALID,92,VALID,1.4082,
2012-12-11, 02:46:04,VALID,1008.72,VALID,0,VALID,104,VALID,0,VALID,22.9536,VALID,95,VALID,1.31289,
2012-12-11, 02:47:04,VALID,1008.75,VALID,0,VALID,104,VALID,0,VALID,22.9147,VALID,92,VALID,0.976953,
2012-12-11, 02:48:04,VALID,1008.73,VALID,0,VALID,104,VALID,0.112112,VALID,22.9536,VALID,86,VALID,0.566016,
2012-12-11, 02:49:04,VALID,1008.74,VALID,0,VALID,104,VALID,0,VALID,22.9342,VALID,99,VALID,0.766797,
2012-12-11, 02:50:04,VALID,1008.75,VALID,0,VALID,104,VALID,0.112112,VALID,22.9536,VALID,118,VALID,0.989453,
2012-12-11, 02:51:04,VALID,1008.72,VALID,0,VALID,104,VALID,0.112112,VALID,22.9536,VALID,110,VALID,0.577734,
2012-12-11, 02:52:04,VALID,1008.72,VALID,0,VALID,104,VALID,0,VALID,22.9731,VALID,102,VALID,0.522266,
2012-12-11, 02:53:04,VALID,1008.71,VALID,0,VALID,104,VALID,0,VALID,22.9342,VALID,116,VALID,0.980859,
2012-12-11, 02:54:04,VALID,1008.68,VALID,0,VALID,104,VALID,0,VALID,22.9342,VALID,81,VALID,0.928516,
2012-12-11, 02:55:04,VALID,1008.65,VALID,0,VALID,104,VALID,0,VALID,22.9147,VALID,76,VALID,1.27266,
2012-12-11, 02:56:04,VALID,1008.63,VALID,0,VALID,104,VALID,0,VALID,22.9342,VALID,80,VALID,0.855859,
2012-12-11, 02:57:04,VALID,1008.62,VALID,0,VALID,104,VALID,0,VALID,22.9342,VALID,85,VALID,0.632031,
2012-12-11, 02:58:04,VALID,1008.61,VALID,0,VALID,104,VALID,0,VALID,22.8952,VALID,106,VALID,0.995703,
2012-12-11, 02:59:04,VALID,1008.59,VALID,0,VALID,104,VALID,0,VALID,22.9342,VALID,87,VALID,0.597266,
2012-12-11, 03:00:04,VALID,1008.61,VALID,0,VALID,104,VALID,0,VALID,22.8952,VALID,90,VALID,1.16953,
2012-12-11, 03:01:04,VALID,1008.55,VALID,0,VALID,104,VALID,0,VALID,22.8952,VALID,83,VALID,0.857813,
2012-12-11, 03:02:04,VALID,1008.57,VALID,0,VALID,104,VALID,0,VALID,22.9147,VALID,83,VALID,0.880859,
2012-12-11, 03:03:04,VALID,1008.56,VALID,0,VALID,104,VALID,0,VALID,22.8952,VALID,85,VALID,0.673437,
2012-12-11, 03:04:04,VALID,1008.57,VALID,0,VALID,104,VALID,0,VALID,22.9147,VALID,85,VALID,0.577344,
2012-12-11, 03:05:04,VALID,1008.57,VALID,0,VALID,104,VALID,0,VALID,22.8952,VALID,88,VALID,0.633594,
2012-12-11, 03:06:04,VALID,1008.57,VALID,0,VALID,104,VALID,0,VALID,22.9342,VALID,89,VALID,0.632031,
2012-12-11, 03:07:04,VALID,1008.55,VALID,0,VALID,104,VALID,0,VALID,22.8952,VALID,85,VALID,0.538672,
2012-12-11, 03:08:04,VALID,1008.56,VALID,0,VALID,104,VALID,0,VALID,22.8757,VALID,84,VALID,0.526953,
2012-12-11, 03:09:04,VALID,1008.56,VALID,0,VALID,104,VALID,0,VALID,22.8952,VALID,84,VALID,0.569922,
2012-12-11, 03:10:04,VALID,1008.55,VALID,0,VALID,104,VALID,0,VALID,22.8952,VALID,84,VALID,0.672656,
2012-12-11, 03:11:04,VALID,1008.56,VALID,0,VALID,104,VALID,0,VALID,22.9147,VALID,82,VALID,0.570703,
2012-12-11, 03:12:04,VALID,1008.55,VALID,0,VALID,104,VALID,0,VALID,22.9147,VALID,73,VALID,0.696484,
2012-12-11, 03:13:04,VALID,1008.55,VALID,0,VALID,104,VALID,0.112112,VALID,22.8952,VALID,63,VALID,0.366016,
2012-12-11, 03:14:04,VALID,1008.52,VALID,0,VALID,104,VALID,0.112112,VALID,22.8935,VALID,62,VALID,0.783594,
2012-12-11, 03:15:04,VALID,1008.51,VALID,0,VALID,104,VALID,0.112112,VALID,22.8757,VALID,73,VALID,0.755078,
2012-12-11, 03:16:04,VALID,1008.52,VALID,0,VALID,104,VALID,0.112112,VALID,22.8562,VALID,81,VALID,1.0125,
2012-12-11, 03:17:04,VALID,1008.51,VALID,0,VALID,104,VALID,0,VALID,22.8562,VALID,58,VALID,0.874219,
2012-12-11, 03:18:04,VALID,1008.51,VALID,0,VALID,104,VALID,0.112112,VALID,22.8757,VALID,54,VALID,0.758984,
2012-12-11, 03:19:04,VALID,1008.51,VALID,0,VALID,104,VALID,0.112112,VALID,22.8952,VALID,55,VALID,0.7875,
2012-12-11, 03:20:04,VALID,1008.53,VALID,0,VALID,104,VALID,0,VALID,22.7978,VALID,60,VALID,0.523828,
2012-12-11, 03:21:04,VALID,1008.52,VALID,0,VALID,104,VALID,0,VALID,22.8775,VALID,55,VALID,0.680859,
2012-12-11, 03:22:04,VALID,1008.55,VALID,0,VALID,104,VALID,0,VALID,22.835,VALID,89,VALID,1.15117,
2012-12-11, 03:23:04,VALID,1008.53,VALID,0,VALID,104,VALID,0.112112,VALID,22.8952,VALID,83,VALID,0.945703,
2012-12-11, 03:24:04,VALID,1008.55,VALID,0,VALID,104,VALID,0,VALID,22.8757,VALID,71,VALID,1.02344,
2012-12-11, 03:25:04,VALID,1008.57,VALID,0,VALID,104,VALID,0,VALID,22.8545,VALID,88,VALID,0.983984,
2012-12-11, 03:26:04,VALID,1008.58,VALID,0,VALID,104,VALID,0,VALID,22.9731,VALID,71,VALID,1.17734,
2012-12-11, 03:27:04,VALID,1008.59,VALID,0,VALID,104,VALID,0.112112,VALID,22.8952,VALID,67,VALID,0.696875,
2012-12-11, 03:28:04,VALID,1008.56,VALID,0,VALID,104,VALID,0.112112,VALID,22.8757,VALID,26,VALID,0.336719,
2012-12-11, 03:29:04,VALID,1008.58,VALID,0,VALID,104,VALID,0,VALID,22.8562,VALID,77,VALID,0.852734,
2012-12-11, 03:30:04,VALID,1008.56,VALID,0,VALID,104,VALID,0,VALID,22.8562,VALID,74,VALID,0.814062,
2012-12-11, 03:31:04,VALID,1008.56,VALID,0,VALID,104,VALID,0,VALID,22.8368,VALID,22,VALID,1.06172,
2012-12-11, 03:32:04,VALID,1008.55,VALID,0,VALID,104,VALID,0,VALID,22.8562,VALID,15,VALID,0.652734,
2012-12-11, 03:33:04,VALID,1008.56,VALID,0,VALID,104,VALID,0,VALID,22.8562,VALID,51,VALID,1.13672,
2012-12-11, 03:34:04,VALID,1008.53,VALID,0,VALID,104,VALID,0,VALID,22.7995,VALID,40,VALID,0.557813,
2012-12-11, 03:35:04,VALID,1008.54,VALID,0,VALID,104,VALID,0,VALID,22.7961,VALID,41,VALID,0.615234,
2012-12-11, 03:36:04,VALID,1008.55,VALID,0,VALID,104,VALID,0,VALID,22.8173,VALID,83,VALID,0.633203,
2012-12-11, 03:37:04,VALID,1008.55,VALID,0,VALID,104,VALID,0,VALID,22.8173,VALID,65,VALID,0.538672,
2012-12-11, 03:38:04,VALID,1008.56,VALID,0,VALID,104,VALID,0,VALID,22.8368,VALID,64,VALID,0.453906,
2012-12-11, 03:39:04,VALID,1008.54,VALID,0,VALID,104,VALID,0,VALID,22.8368,VALID,64,VALID,0.570313,
2012-12-11, 03:40:04,VALID,1008.57,VALID,0,VALID,104,VALID,0,VALID,22.7961,VALID,48,VALID,0.832812,
2012-12-11, 03:41:04,VALID,1008.53,VALID,0,VALID,104,VALID,0,VALID,22.8173,VALID,36,VALID,0.957031,
2012-12-11, 03:42:04,VALID,1008.54,VALID,0,VALID,104,VALID,0,VALID,22.7978,VALID,38,VALID,0.811328,
2012-12-11, 03:43:04,VALID,1008.56,VALID,0,VALID,104,VALID,0,VALID,22.7571,VALID,81,VALID,0.701563,
2012-12-11, 03:44:04,VALID,1008.56,VALID,0,VALID,104,VALID,0,VALID,22.7978,VALID,76,VALID,1.41602,
2012-12-11, 03:45:04,VALID,1008.59,VALID,0,VALID,104,VALID,0,VALID,22.8173,VALID,79,VALID,1.00117,
2012-12-11, 03:46:04,VALID,1008.59,VALID,0,VALID,104,VALID,0,VALID,22.7978,VALID,71,VALID,1.20977,
2012-12-11, 03:47:04,VALID,1008.57,VALID,0,VALID,104,VALID,0,VALID,22.7783,VALID,50,VALID,0.813281,
2012-12-11, 03:48:04,VALID,1008.59,VALID,0,VALID,104,VALID,0,VALID,22.7978,VALID,67,VALID,0.492188,
2012-12-11, 03:49:04,VALID,1008.57,VALID,0,VALID,104,VALID,0,VALID,22.7978,VALID,49,VALID,0.801172,